Location: Unspecified
(45.3712°N, 0.6436°E)
Time: 04:31:08
(UTC+02:00)

ISS - Visible Passes

Search period start: 22 May 2018 00:00
Search period end: 01 June 2018 00:00
Orbit: 402 x 407 km, 51.6° (Epoch: 22 May)

Date Brightness Start Highest point End Pass type
(mag) Time Alt. Az. Time Alt. Az. Time Alt. Az.
22 May -1.6 01:28:22 10° WNW 01:31:13 27° N 01:34:04 10° NE visible
22 May -2.1 03:05:15 10° NW 03:08:16 34° NNE 03:11:19 10° E visible
22 May -3.9 04:41:41 10° WNW 04:44:55 59° SW 04:48:08 10° SE visible
22 May -4.0 22:58:50 10° WSW 23:02:06 83° SSE 23:05:23 10° ENE visible
23 May -1.8 00:35:54 10° WNW 00:38:51 30° N 00:41:48 10° NE visible
23 May -1.7 02:13:01 10° NW 02:15:56 28° N 02:18:50 10° ENE visible
23 May -3.9 03:49:28 10° WNW 03:52:45 82° NNE 03:56:00 10° ESE visible
23 May -2.2 05:26:48 10° W 05:28:51 16° SW 05:30:54 10° S visible
23 May -3.6 22:06:47 10° SW 22:09:57 48° SE 22:13:07 10° ENE visible
23 May -2.3 23:43:25 10° W 23:46:30 37° NNW 23:49:36 10° NE visible
24 May -1.6 01:20:43 10° WNW 01:23:33 26° N 01:26:22 10° ENE visible
24 May -3.0 02:57:17 10° NW 03:00:18 51° N 03:00:18 51° N visible
24 May-0.704:40:47SSE04:40:47SSE04:32:43WNWvisible
24 May -3.0 22:50:59 10° WSW 22:54:12 52° NNW 22:57:25 10° NE visible
25 May -1.6 00:28:19 10° WNW 00:31:09 26° N 00:33:59 10° ENE visible
25 May -2.4 02:05:06 10° NW 02:08:11 37° NNE 02:08:15 37° NNE visible
25 May -1.7 23:35:50 10° WNW 23:38:44 28° N 23:41:39 10° NE visible
26 May -1.9 01:12:52 10° NW 01:15:49 30° N 01:17:09 22° NE visible
26 May -1.2 02:49:17 10° WNW 02:49:46 14° WNW 02:49:46 14° WNW visible
26 May -2.0 22:43:18 10° W 22:46:20 34° NNW 22:49:23 10° NE visible
27 May -1.7 00:20:33 10° NW 00:23:24 27° N 00:26:15 10° ENE visible
27 May -2.1 01:57:03 10° WNW 01:58:56 30° NW 01:58:56 30° NW visible
27 May -1.6 23:28:08 10° WNW 23:30:58 26° N 23:33:47 10° ENE visible
28 May -2.7 01:04:50 10° NW 01:07:58 41° NNE 01:08:11 41° NNE visible
28 May -1.7 22:35:38 10° WNW 22:38:30 27° N 22:41:23 10° NE visible
29 May -2.1 00:12:35 10° NW 00:15:35 32° NNE 00:17:28 18° ENE visible
29 May -1.6 01:49:00 10° WNW 01:50:06 19° WNW 01:50:06 19° WNW visible
29 May -1.8 23:20:15 10° NW 23:23:08 27° N 23:26:01 10° ENE visible
30 May -3.2 00:56:43 10° WNW 00:59:27 55° NW 00:59:27 55° NW visible
30 May -1.7 22:27:50 10° WNW 22:30:40 26° N 22:33:29 10° ENE visible
31 May -3.0 00:04:27 10° NW 00:07:38 47° NNE 00:08:49 31° ENE visible
31 May -1.1 01:41:05 10° WNW 01:41:26 12° W 01:41:26 12° W visible
31 May -2.4 23:12:10 10° NW 23:15:13 35° NNE 23:18:12 10° E visible
